Simultaneous Nadir Overpasses (SNOs) Predictions

Prediction of SNOs between NOAA-21 and LANDSAT-8 Satellite Orbit:

Table of predicted SNOs for the next 14.0 days since TLE Epoch: 2/3/2024
Index Date (NOAA-21) Time (NOAA-21) Lat,Lon (NOAA-21) SZA (NOAA-21 ) Date (LANDSAT-8) Time (LANDSAT-8) Lat,Lon (LANDSAT-8) SZA (LANDSAT-8 ) Distance(km) Time Diff (sec)
1 02/03/2024 23:26:03 70.51,-176.22 87.03 02/03/2024 23:27:13 70.41,-174.97 86.87 47.61 70
2 02/04/2024 00:16:36 -69.95, -8.04 93.57 02/04/2024 00:16:49 -69.97, -7.97 93.56 3.06 13
3 02/04/2024 01:07:20 69.83, 159.45 86.29 02/04/2024 01:06:17 69.81, 159.45 86.29 2.11 63
4 02/06/2024 15:42:46 70.04, -59.71 85.74 02/06/2024 15:43:50 70.02, -59.65 85.70 2.83 64
5 02/06/2024 16:33:27 -69.91, 107.81 94.42 02/06/2024 16:33:20 -69.91, 107.83 94.42 0.71 7
6 02/06/2024 17:24:04 69.42, -84.15 85.05 02/06/2024 17:22:53 69.48, -85.13 85.17 38.60 71
7 02/09/2024 07:59:37 70.01, 56.13 84.86 02/09/2024 08:00:20 70.00, 56.18 84.84 2.24 43
8 02/09/2024 08:50:18 -69.87,-136.34 95.30 02/09/2024 08:49:50 -69.89,-136.33 95.28 2.06 28
9 02/12/2024 00:16:27 69.93, 172.04 83.91 02/12/2024 00:16:50 69.95, 171.99 83.92 2.73 23
10 02/12/2024 01:07:09 -69.84, -20.51 96.20 02/12/2024 01:06:20 -69.84, -20.52 96.19 0.60 49
11 02/14/2024 15:42:37 -70.23, 120.06 96.66 02/14/2024 15:43:49 -70.15, 120.51 96.78 19.35 72
12 02/14/2024 16:33:17 69.91, -72.14 83.00 02/14/2024 16:33:18 69.93, -72.16 83.01 1.62 1
13 02/14/2024 17:23:59 -69.82, 95.31 97.12 02/14/2024 17:22:48 -69.82, 95.33 97.11 0.64 71



Historial Predications of SNOs between NOAA-21 and LANDSAT-8
